Flag for U.S.A. Weather past 2 weeks in Winamac, Indiana, U.S.A.

Now
62 °F

Fog.


Feels Like: 62 °F
Forecast: 64 / 83 °F
Wind: 3 mph from Northeast

Location: Porter County Municipal Airport

Current Time: Aug 31, 2015 at 5:06:32 AM

Latest Report: Aug 31, 2015 at 3:56 AM


Visibility: 0 mi

Pressure: 30.03 "Hg

Humidity: 96%

Dew point: 61 °F

Location of WinamacLocation

Historic Weather in Winamac — Graph

°F

Winamac temperature yesterday

Maximum temperature yesterday: 77 °F (at 3:56 PM)
Minimum temperature yesterday: 63 °F (at 11:56 PM)
Average temperature yesterday: 70 °F

Past Weeks' High & Low Weather Summary

 TemperatureHumidityPressure
High88 °F (Aug 16, 2:56 PM)97% (Aug 22, 6:56 AM)30.23 "Hg (Aug 22, 6:56 AM)
Low53 °F (Aug 28, 5:56 AM)42% (Aug 22, 1:56 PM)29.69 "Hg (Aug 19, 5:56 AM)
Average68 °F75%30.01 "Hg
* Reported Aug 16 3:56 AM — Aug 31 3:56 AM, Winamac, Weather by CustomWeather, © 2015

Note: Actual official high and low records may vary slightly from our data, if they occured in-between our weather recording intervals... More about our weather records

Advertising

Winamac weather history for previous 24 hours

 ConditionsComfort  
Time TempWeatherWind HumidityBarometerVisibility
3:56 AM
Mon, Aug 31
62 °FFog.3 mph96%30.03 "Hg0 mi
2:56 AM63 °FFog.No wind97%30.04 "Hg1 mi
1:56 AM63 °FFog.3 mph97%30.04 "Hg0 mi
12:56 AM63 °FFog.3 mph97%30.04 "Hg0 mi
11:56 PM
Sun, Aug 30
63 °FFog.3 mph97%30.04 "Hg0 mi
10:56 PM64 °FFog.3 mph97%30.05 "Hg2 mi
9:56 PM67 °FClear.3 mph93%30.05 "Hg7 mi
8:56 PM68 °FFog.3 mph93%30.03 "Hg6 mi
7:56 PM73 °FSunny.No wind81%30.01 "Hg9 mi
6:56 PM76 °FPartly sunny.3 mph77%30.02 "Hg10 mi
4:56 PM77 °FMostly cloudy.6 mph74%30.03 "Hg9 mi
3:56 PM77 °FPartly sunny.3 mph71%30.04 "Hg10 mi
2:56 PM74 °FMostly cloudy.7 mph76%30.06 "Hg10 mi
1:56 PM75 °FMostly cloudy.5 mph79%30.06 "Hg7 mi
12:56 PM74 °FOvercast.5 mph79%30.08 "Hg9 mi
11:56 AM74 °FMostly cloudy.5 mph76%30.08 "Hg9 mi
10:56 AM71 °FMostly cloudy.No wind84%30.07 "Hg7 mi
9:56 AM69 °FFog.5 mph87%30.07 "Hg4 mi
8:56 AM68 °FFog.5 mph90%30.07 "Hg3 mi
8:01 AM67 °FFog.No wind93%30.07 "Hg2 mi
6:56 AM67 °FFog.No wind97%30.03 "Hg2 mi
5:56 AM67 °FFog.3 mph97%30.02 "Hg2 mi
Weather by CustomWeather, © 2015

See weather overviewHow to use our weather pages